Hourly Data Report for October 29, 2015

All times are specified in Local Standard Time (LST). Add 1 hour to adjust for Daylight Saving Time where and when it is observed.

OTTAWA INTL A
ONTARIO

45°19'00.000" N
75°40'00.000" W
114.90 m
6106001
71628
YOW

Download Data

Hourly Data (October 2015)
Hourly Data Report for October 29, 2015
Temp Definition
°C
Dew Point Temp Definition
°C
Rel Hum Definition
%
Wind Dir Definition
10's deg

Wind Spd Definition
km/h
Visibility Definition
km
Stn Press Definition
kPa
Hmdx Definition


Wind Chill Definition


Weather Definition


TIME
00:00 Legend Double Dagger 8.1 7.7 97 6 16 8.1 98.36     Rain,Fog
01:00 Legend Double Dagger 8.6 8.3 98 7 14 8.1 98.28     Rain,Fog
02:00 Legend Double Dagger 9.2 8.9 98 7 21 6.4 98.16     Rain,Fog
03:00 Legend Double Dagger 9.5 9.2 98 9 10 6.4 98.11     Drizzle,Fog
04:00 Legend Double Dagger 10.7 10.4 98 17 9 2.4 98.12     Fog
05:00 Legend Double Dagger 11.3 11.0 98 17 4 0.8 98.05     Fog
06:00 Legend Double Dagger 13.1 12.8 98 18 13 16.1 98.00     LegendNANA
07:00 Legend Double Dagger 13.0 11.9 93 20 17 24.1 97.99     Mostly Cloudy
08:00 Legend Double Dagger 12.9 11.7 92 21 18 24.1 98.07     LegendNANA
09:00 Legend Double Dagger 12.6 10.5 87 20 23 24.1 98.08     LegendNANA
10:00 Legend Double Dagger 11.4 9.2 86 23 32 16.1 98.18     Rain Showers
11:00 Legend Double Dagger 9.6 6.2 79 21 40 24.1 98.16     Rain Showers
12:00 Legend Double Dagger 11.2 -1.5 41 21 47 24.1 98.14     LegendNANA
13:00 Legend Double Dagger 10.8 0.0 47 23 36 24.1 98.21     Mostly Cloudy
14:00 Legend Double Dagger 9.6 -1.1 47 24 34 24.1 98.29     LegendNANA
15:00 Legend Double Dagger 9.0 -2.3 45 24 39 24.1 98.34     LegendNANA
16:00 Legend Double Dagger 8.4 -2.2 47 24 28 24.1 98.39     Mostly Cloudy
17:00 Legend Double Dagger 7.9 -3.0 46 23 29 24.1 98.41     LegendNANA
18:00 Legend Double Dagger 7.3 -2.2 51 22 25 24.1 98.44     LegendNANA
19:00 Legend Double Dagger 6.8 -2.1 53 22 25 24.1 98.48     Cloudy
20:00 Legend Double Dagger 7.0 -0.5 59 22 31 24.1 98.46     LegendNANA
21:00 Legend Double Dagger 6.7 0.8 66 23 32 24.1 98.45     LegendNANA
22:00 Legend Double Dagger 6.9 1.4 68 22 28 24.1 98.46     Cloudy
23:00 Legend Double Dagger 7.3 2.4 71 23 28 24.1 98.49     LegendNANA

Notes on Data Quality.

Legend

  • E = Estimated
  • M = Missing
  • NA = Not Available
  • ‡ = Partner data that is not subject to review by the National Climate Archives
Date modified: